Location: Bonac
(42.8765°N, 0.9753°E)
Time: 20:40:13
(UTC+00:00)

Cosmos 676 Rocket - Pass Details

Date: 12 January 2026
Orbit: 750 x 779 km, 74.0° (Epoch: 13 February)

Event Time Altitude Azimuth Distance (km) Brightness Sun altitude
Rises 17:14:31 0° 346° (NNW) 3,213 7.1 -5.9°
Reaches altitude 10° 17:17:02 10° 354° (N) 2,287 6.3 -6.3°
Maximum altitude 17:21:54 40° 63° (ENE) 1,110 4.4 -7.1°
Drops below altitude 10° 17:26:46 10° 133° (SE) 2,289 6.2 -7.9°
Sets 17:29:17 0° 141° (SE) 3,215 7.0 -8.4°
